Location: Asheville, NC
(35.6000°N, 82.5500°W)
Time: 10:55:14
(UTC-04:00)

Vanguard 2 Rocket - Pass Details

Date: 13 February 2018
Orbit: 553 x 3327 km, 32.9° (Epoch: 25 May)

Event Time Altitude Azimuth Distance (km) Brightness Sun altitude
Rises 06:54:41 0° 285° (WNW) 7,319 - -5.6°
Exits shadow 06:57:32 - 283° (WNW) 6,742 10.6 -5.1°
Reaches altitude 10° 06:59:56 10° 281° (W) 6,255 10.5 -4.6°
Maximum altitude 07:18:08 50° 214° (SSW) 3,200 9.6 -1.0°
Drops below altitude 10° 07:30:21 10° 143° (SE) 4,317 11.4 1.4°
Sets 07:33:16 0° 137° (SE) 4,988 11.9 1.9°
